Location: Feydey
(46.3431°N, 7.0106°E)
Time: 17:34:07
(UTC+00:00)

deb Atmosphere 2 - Pass Details

Date: 02 February 2022
Orbit: 828 x 839 km, 98.6° (Epoch: 18 May)

Event Time Altitude Azimuth Distance (km) Brightness Sun altitude
Rises 17:36:48 0° 219° (SW) 3,384 ? -10.5°
Reaches altitude 10° 17:40:35 10° 246° (WSW) 2,457 ? -11.1°
Maximum altitude 17:43:03 13° 273° (W) 2,247 ? -11.5°
Drops below altitude 10° 17:45:31 10° 300° (WNW) 2,465 ? -11.9°
Sets 17:49:22 0° 328° (NNW) 3,405 ? -12.6°
